This is the latest recevied weather packets stored in our database for station/object K7SPS-10. If no packets are shown the sender has not sent any weather packets the latest 10 day(s).
| Time | Temp. | Humidity | Pressure | Rain* | Wind** | Luminosity | Snow |
|---|---|---|---|---|---|---|---|
| 1777720602 | 7.22° C | 79% | 1017.6 hPa | 0 mm | - | 0 W/m² | - |
| 1777720300 | 6.67° C | 82% | 1017.3 hPa | 0 mm | - | 0 W/m² | - |
| 1777719998 | 6.11° C | 84% | 1017.1 hPa | 0 mm | - | 0 W/m² | - |
| 1777719695 | 6.67° C | 84% | 1017.3 hPa | 0 mm | - | 0 W/m² | - |
| 1777719392 | 6.67° C | 83% | 1017.5 hPa | 0 mm | - | 0 W/m² | - |
| 1777719089 | 6.67° C | 83% | 1017.6 hPa | 0 mm | - | 0 W/m² | - |
| 1777718786 | 6.11° C | 84% | 1017.6 hPa | 0 mm | - | 0 W/m² | - |
| 1777718483 | 6.67° C | 85% | 1017.4 hPa | 0 mm | - | 0 W/m² | - |
| 1777718181 | 6.11° C | 86% | 1017.5 hPa | 0 mm | - | 0 W/m² | - |
| 1777717879 | 6.11° C | 85% | 1017.5 hPa | 0 mm | - | 0 W/m² | - |
| 1777717576 | 6.67° C | 85% | 1017.3 hPa | 0 mm | - | 0 W/m² | - |
| 1777717272 | 6.11° C | 85% | 1017.1 hPa | 0 mm | - | 0 W/m² | - |
| 1777716970 | 6.67° C | 84% | 1017.4 hPa | 0 mm | - | 0 W/m² | - |
| 1777716668 | 6.67° C | 85% | 1017.3 hPa | 0 mm | - | 0 W/m² | - |
| 1777716366 | 6.67° C | 84% | 1017.4 hPa | 0 mm | - | 0 W/m² | - |
| 1777716064 | 6.67° C | 83% | 1017.1 hPa | 0 mm | - | 0 W/m² | - |
| 1777715762 | 7.22° C | 83% | 1017.3 hPa | 0 mm | - | 0 W/m² | - |
| 1777715459 | 7.22° C | 82% | 1017.3 hPa | 0 mm | - | 0 W/m² | - |
| 1777715156 | 7.22° C | 82% | 1017.4 hPa | 0 mm | - | 0 W/m² | - |
| 1777714854 | 7.22° C | 82% | 1017.3 hPa | 0 mm | - | 0 W/m² | - |
| 1777714553 | 7.22° C | 82% | 1017.4 hPa | 0 mm | - | 0 W/m² | - |
| 1777714250 | 7.22° C | 81% | 1017.3 hPa | 0 mm | - | 0 W/m² | - |
| 1777713947 | 7.78° C | 81% | 1017.4 hPa | 0 mm | - | 0 W/m² | - |
| 1777713645 | 7.78° C | 81% | 1017.4 hPa | 0 mm | - | 0 W/m² | - |
| 1777713341 | 7.78° C | 80% | 1017.3 hPa | 0 mm | - | 0 W/m² | - |
* Rain latest hour (hover to see other rain measurements)
** Current wind speed in m/s (hover to see current wind gust speed)